Previsão horária em Jurzynek

Hoje, 21 Junho, Segunda-feira

Tempo Temperatura Precipitação Vento Pressão Humidade
00:00 +21°C° 0 mm 3 m/s 749 mmHg 85%
01:00 +20°C° 0 mm 3 m/s 749 mmHg 88%
02:00 +20°C° 0 mm 3 m/s 749 mmHg 89%
03:00 +20°C° 0 mm 3 m/s 749 mmHg 89%
04:00 +20°C° 0 mm 3 m/s 748 mmHg 90%
05:00 +21°C° 0 mm 4 m/s 748 mmHg 84%
06:00 +22°C° 0 mm 5 m/s 748 mmHg 78%
07:00 +24°C° 0 mm 6 m/s 748 mmHg 72%
08:00 +26°C° 0 mm 6 m/s 748 mmHg 66%
09:00 +27°C° 0 mm 6 m/s 748 mmHg 60%
10:00 +29°C° 0 mm 6 m/s 748 mmHg 53%
11:00 +29°C° 0 mm 6 m/s 748 mmHg 51%
12:00 +30°C° 0 mm 6 m/s 748 mmHg 49%
13:00 +32°C° 0 mm 5 m/s 748 mmHg 47%
14:00 +32°C° 0 mm 5 m/s 747 mmHg 47%
15:00 +32°C° 0 mm 5 m/s 747 mmHg 48%
16:00 +32°C° 0 mm 5 m/s 747 mmHg 49%
17:00 +29°C° 0 mm 4 m/s 747 mmHg 55%
18:00 +28°C° 0 mm 4 m/s 747 mmHg 62%
19:00 +26°C° 0 mm 3 m/s 747 mmHg 69%
20:00 +25°C° 0 mm 3 m/s 747 mmHg 73%
21:00 +24°C° 0 mm 3 m/s 747 mmHg 77%
22:00 +22°C° 0 mm 3 m/s 747 mmHg 80%
23:00 +22°C° 0 mm 3 m/s 747 mmHg 83%

Amanhã, 22 Junho, Terça-feira

Tempo Temperatura Precipitação Vento Pressão Humidade
00:00 +21°C° 0 mm 3 m/s 747 mmHg 85%
01:00 +21°C° 0 mm 3 m/s 747 mmHg 87%
02:00 +20°C° 0 mm 2 m/s 747 mmHg 88%
03:00 +20°C° 0 mm 2 m/s 747 mmHg 88%
04:00 +20°C° 0 mm 2 m/s 747 mmHg 89%
05:00 +23°C° 0 mm 2 m/s 747 mmHg 84%
06:00 +24°C° 0 mm 2 m/s 747 mmHg 78%
07:00 +26°C° 0 mm 2 m/s 748 mmHg 73%
08:00 +27°C° 0 mm 2 m/s 748 mmHg 68%
09:00 +28°C° 0 mm 2 m/s 748 mmHg 62%
10:00 +30°C° 0 mm 2 m/s 748 mmHg 57%
11:00 +30°C° 0.1 mm 2 m/s 748 mmHg 54%
12:00 +31°C° 0.1 mm 2 m/s 748 mmHg 50%
13:00 +32°C° 0.1 mm 1 m/s 748 mmHg 47%
14:00 +31°C° 0.1 mm 2 m/s 748 mmHg 52%
15:00 +30°C° 0.1 mm 2 m/s 748 mmHg 57%
16:00 +29°C° 0.1 mm 3 m/s 748 mmHg 62%
17:00 +27°C° 2.3 mm 3 m/s 748 mmHg 71%
18:00 +26°C° 2.3 mm 3 m/s 749 mmHg 79%
19:00 +23°C° 2.3 mm 4 m/s 749 mmHg 87%
20:00 +22°C° 1.6 mm 3 m/s 749 mmHg 88%
21:00 +23°C° 1.6 mm 2 m/s 749 mmHg 88%
22:00 +21°C° 1.6 mm 2 m/s 750 mmHg 89%
23:00 +20°C° 0.2 mm 2 m/s 750 mmHg 91%

Depois de amanhã, 23 Junho, Quarta-feira

Tempo Temperatura Precipitação Vento Pressão Humidade
00:00 +20°C° 0.2 mm 2 m/s 750 mmHg 94%
01:00 +20°C° 0.2 mm 3 m/s 750 mmHg 96%
02:00 +19°C° 0.8 mm 3 m/s 750 mmHg 96%
03:00 +19°C° 0.8 mm 2 m/s 750 mmHg 97%
04:00 +19°C° 0.8 mm 2 m/s 751 mmHg 97%
05:00 +19°C° 0.3 mm 2 m/s 751 mmHg 96%
06:00 +19°C° 0.3 mm 2 m/s 751 mmHg 95%
07:00 +19°C° 0.3 mm 3 m/s 752 mmHg 94%
08:00 +21°C° 0 mm 2 m/s 752 mmHg 89%
09:00 +23°C° 0 mm 2 m/s 752 mmHg 84%
10:00 +25°C° 0 mm 2 m/s 752 mmHg 79%
11:00 +26°C° 0.1 mm 2 m/s 752 mmHg 75%
12:00 +27°C° 0.1 mm 3 m/s 752 mmHg 71%
13:00 +28°C° 0.1 mm 3 m/s 752 mmHg 67%
14:00 +28°C° 0.5 mm 3 m/s 752 mmHg 68%
15:00 +28°C° 0.5 mm 3 m/s 752 mmHg 69%
16:00 +28°C° 0.5 mm 3 m/s 752 mmHg 70%
17:00 +27°C° 0.1 mm 3 m/s 752 mmHg 74%
18:00 +26°C° 0.1 mm 3 m/s 752 mmHg 79%
19:00 +25°C° 0.1 mm 3 m/s 752 mmHg 84%
20:00 +24°C° 0.1 mm 3 m/s 752 mmHg 88%
21:00 +22°C° 0.1 mm 3 m/s 753 mmHg 92%
22:00 +20°C° 0.1 mm 3 m/s 753 mmHg 96%
23:00 +20°C° 0 mm 3 m/s 753 mmHg 96%

24 Junho, Quinta-feira

Tempo Temperatura Precipitação Vento Pressão Humidade
00:00 +19°C° 0 mm 2 m/s 753 mmHg 96%
01:00 +19°C° 0 mm 2 m/s 753 mmHg 96%
02:00 +18°C° 0 mm 2 m/s 753 mmHg 96%
03:00 +18°C° 0 mm 2 m/s 753 mmHg 96%
04:00 +17°C° 0 mm 2 m/s 753 mmHg 95%
05:00 +19°C° 0 mm 2 m/s 753 mmHg 90%
06:00 +20°C° 0 mm 2 m/s 753 mmHg 85%
07:00 +23°C° 0 mm 2 m/s 753 mmHg 80%
08:00 +24°C° 0 mm 2 m/s 753 mmHg 75%
09:00 +26°C° 0 mm 2 m/s 753 mmHg 70%
10:00 +27°C° 0 mm 1 m/s 753 mmHg 66%
11:00 +28°C° 0 mm 1 m/s 753 mmHg 63%
12:00 +29°C° 0 mm 1 m/s 753 mmHg 60%
13:00 +30°C° 0 mm 2 m/s 753 mmHg 57%
14:00 +30°C° 0 mm 1 m/s 752 mmHg 58%
15:00 +30°C° 0 mm 1 m/s 752 mmHg 59%
16:00 +29°C° 0 mm 1 m/s 752 mmHg 60%
17:00 +29°C° 0 mm 1 m/s 752 mmHg 64%
18:00 +28°C° 0 mm 2 m/s 752 mmHg 67%
19:00 +27°C° 0 mm 2 m/s 751 mmHg 71%
20:00 +25°C° 0.3 mm 2 m/s 751 mmHg 76%
21:00 +24°C° 0.3 mm 2 m/s 751 mmHg 82%
22:00 +21°C° 0.3 mm 2 m/s 751 mmHg 87%
23:00 +21°C° 0.3 mm 2 m/s 751 mmHg 90%

25 Junho, Sexta-feira

Tempo Temperatura Precipitação Vento Pressão Humidade
00:00 +21°C° 0.3 mm 3 m/s 751 mmHg 92%
01:00 +20°C° 0.3 mm 3 m/s 751 mmHg 95%
02:00 +20°C° 0.6 mm 2 m/s 750 mmHg 96%
03:00 +20°C° 0.6 mm 2 m/s 750 mmHg 96%
04:00 +20°C° 0.6 mm 2 m/s 750 mmHg 97%
05:00 +20°C° 1.6 mm 3 m/s 749 mmHg 97%
06:00 +20°C° 1.6 mm 3 m/s 749 mmHg 96%
07:00 +21°C° 1.6 mm 3 m/s 748 mmHg 96%
08:00 +22°C° 0.1 mm 3 m/s 748 mmHg 89%
09:00 +25°C° 0.1 mm 2 m/s 749 mmHg 82%
10:00 +26°C° 0.1 mm 1 m/s 749 mmHg 75%
11:00 +27°C° 0.1 mm 2 m/s 748 mmHg 73%
12:00 +27°C° 0.1 mm 3 m/s 748 mmHg 71%
13:00 +28°C° 0.1 mm 4 m/s 748 mmHg 69%
14:00 +26°C° 0.3 mm 4 m/s 748 mmHg 74%
15:00 +25°C° 0.3 mm 5 m/s 748 mmHg 79%
16:00 +22°C° 0.3 mm 6 m/s 748 mmHg 85%
17:00 +21°C° 0.2 mm 5 m/s 748 mmHg 85%
18:00 +21°C° 0.2 mm 5 m/s 748 mmHg 86%
19:00 +20°C° 0.2 mm 4 m/s 749 mmHg 87%
20:00 +20°C° 0 mm 4 m/s 749 mmHg 88%
21:00 +19°C° 0 mm 4 m/s 749 mmHg 90%
22:00 +18°C° 0 mm 4 m/s 749 mmHg 92%
23:00 +17°C° 0 mm 3 m/s 749 mmHg 93%

26 Junho, Sábado

Tempo Temperatura Precipitação Vento Pressão Humidade
00:00 +17°C° 0 mm 3 m/s 749 mmHg 94%
01:00 +16°C° 0 mm 3 m/s 749 mmHg 96%
02:00 +14°C° 0 mm 3 m/s 749 mmHg 94%
03:00 +14°C° 0 mm 3 m/s 749 mmHg 92%
04:00 +14°C° 0 mm 3 m/s 750 mmHg 90%
05:00 +16°C° 0 mm 3 m/s 750 mmHg 83%
06:00 +17°C° 0 mm 4 m/s 750 mmHg 75%
07:00 +19°C° 0 mm 4 m/s 750 mmHg 67%
08:00 +20°C° 0 mm 4 m/s 750 mmHg 64%
09:00 +21°C° 0 mm 4 m/s 750 mmHg 60%
10:00 +22°C° 0 mm 5 m/s 750 mmHg 56%
11:00 +23°C° 0 mm 4 m/s 750 mmHg 55%
12:00 +25°C° 0 mm 4 m/s 750 mmHg 54%
13:00 +25°C° 0 mm 4 m/s 750 mmHg 54%
14:00 +25°C° 0.1 mm 4 m/s 750 mmHg 56%
15:00 +25°C° 0.1 mm 4 m/s 750 mmHg 58%
16:00 +23°C° 0.1 mm 4 m/s 750 mmHg 59%
17:00 +22°C° 0.1 mm 3 m/s 750 mmHg 64%
18:00 +21°C° 0.1 mm 3 m/s 749 mmHg 69%
19:00 +20°C° 0.1 mm 3 m/s 749 mmHg 74%
20:00 +19°C° 0 mm 3 m/s 750 mmHg 76%
21:00 +17°C° 0 mm 3 m/s 750 mmHg 77%
22:00 +16°C° 0 mm 3 m/s 751 mmHg 79%
23:00 +14°C° 0 mm 3 m/s 751 mmHg 82%
Mostrar mais

Necessitamos do seu Consentimento

A Meteoprog e os seus Fornecedores de Serviços podem armazenar e aceder a dados pessoais como cookies, identificadores do dispositivo ou outras tecnologias semelhantes existentes no seu dispositivo e processar estes dados para personalizar conteúdos e anúncios, assim como funcionalidades nas redes sociais e análise de tráfego.

  • Armazenar e/ou aceder a informações no seu dispositivo

    Os cookies, identificadores do dispositivo ou outras informações podem ser armazenados ou acedidos no seu dispositivo, para os fins acima indicados.

  • Anúncios e conteúdos personalizados, medição de anúncios e conteúdos, dados sobre o público-alvo e desenvolvimento de produtos

    Os anúncios e os conteúdos podem ser personalizados com base num perfil. Podem ser adicionados dados adicionais para uma maior personalização dos anúncios e dos conteúdos. A eficácia dos anúncios e dos conteúdos pode ser medida. Podem ser obtidas informações sobre o público que visualizou os anúncios e os conteúdos. Estes dados podem ser usados para desenvolver ou melhorar sistemas, softwares ou a experiência do utilizador.

Ao clicar em "Eu concordo”, permitirá o uso de cookies, identificadores do dispositivo e web beacons mencionados ou outras tecnologias semelhantes. As configurações do navegador do seu dispositivo podem ser alteradas.

Para certos fins, podem ser invocados interesses legítimos ao invés de consentimento. Pode ler mais informação sobre este assunto na nossa Política de Privacidade e Cookies.